Regional Weather Roundup
Issued by NWS

Home | Current Version | Previous Version | Graphics & Text | Print | Product List | Glossary On
Versions: 1 2 3 4 5 6 7 8 9 10 11 12 13 14 15 16 17 18 19 20 21 22 23 24 25 26 27 28 29 30 31 32 33 34 35 36 37 38 39 40 41 42 43 44 45 46 47 48 49 50
000
ASUS43 KMKX 230811
RWRWI

WISCONSIN REGIONAL WEATHER ROUNDUP
NATIONAL WEATHER SERVICE MILWAUKEE/SULLIVAN WI
300 AM CDT SAT JUL 23 2016

NOTE: "FAIR" INDICATES FEW OR NO CLOUDS BELOW 12,000 FEET WITH NO
SIGNIFICANT WEATHER AND/OR OBSTRUCTIONS TO VISIBILITY.

WIZ001-002-006>008-014>016-023>028-230900-
NORTHWEST WISCONSIN

CITY           SKY/WX    TMP DP  RH WIND       PRES   REMARKS
SUPERIOR ARPT  PTCLDY    62  61  99 CALM      29.99S
ASHLAND        MOCLDY    61  59  93 S5        30.00S
HAYWARD        PTCLDY    64  62  93 CALM      30.02R
SIREN            N/A     70  68  94 CALM      30.00S FOG
CUMBERLAND     CLOUDY    68  66  94 CALM      30.01S
RICE LAKE        N/A     65  64  96 CALM      30.02S FOG
CHETEK         CLOUDY    67  67 100 CALM      30.01S
LADYSMITH      CLOUDY    69  67  95 CALM      30.03S
EAU CLAIRE     CLEAR     66  66 100 CALM      29.97F
MENOMONIE      PTCLDY    69  67  94 CALM      29.99F
NEW RICHMOND   PTCLDY    66  66  99 E5        29.99S
OSCEOLA        PTCLDY    67  67 100 CALM      30.00F
$$

WIZ003>005-009-010-017-018-230900-
NORTH CENTRAL WISCONSIN

CITY           SKY/WX    TMP DP  RH WIND       PRES   REMARKS
MANITOWISH WTR PTCLDY    60  60 100 CALM      30.03S
ARBOR VITAE    MOCLDY    63  61  94 CALM      30.04S
WOODRUFF       MOCLDY    63  61  94 CALM      30.04S
RHINELANDER    PTCLDY    65  63  93 CALM      30.04S FOG
EAGLE RIVER    MOCLDY    60  60 100 CALM      30.03S FOG
LAND O LAKES   MOCLDY    56  56  99 CALM      30.05R
PHILLIPS       PTCLDY    65  65 100 CALM      30.02F
TOMAHAWK       CLOUDY    62  61  94 CALM      30.04S
MEDFORD        PTCLDY    64  64 100 CALM      30.03R FOG
MERRILL        DRZL/FOG  63  63 100 CALM      30.03S VSB 1/4
$$

WIZ029-030-035-036-043>047-230900-
CENTRAL WISCONSIN

CITY           SKY/WX    TMP DP  RH WIND       PRES   REMARKS
WAUSAU         PTCLDY    70  68  93 CALM      30.00F
MOSINEE        CLEAR     68  66  94 CALM      30.02F
MARSHFIELD     CLEAR     68  65  90 CALM      30.01R
STEVENS POINT  CLEAR     64  64  99 CALM      30.01S
WAUPACA        CLEAR     69  69  99 CALM      29.99S
WAUTOMA        PTCLDY    67  65  93 CALM      29.99S
WISC RAPIDS    CLOUDY    67  64  90 CALM      30.01R
CAMP DOUGLAS   FOG       63  63 100 W2        29.99R VSB 1/4
$$

WIZ011>013-019>022-031-037>040-048>050-230900-
NORTHEAST WISCONSIN

CITY           SKY/WX    TMP DP  RH WIND       PRES   REMARKS
ANTIGO         CLOUDY    63  63  99 CALM      30.03S
SHAWANO        CLEAR     67  66  94 CALM      29.99R
OCONTO         PTCLDY   N/A N/A N/A CALM      29.96R
STURGEON BAY   CLEAR     70  68  93 CALM      29.98R
GREEN BAY      CLEAR     68  68 100 CALM      29.98R
MANITOWOC      PTCLDY    73  70  90 NW3       29.97S
APPLETON       CLEAR     72  63  73 CALM      29.98R
CLINTONVILLE   CLEAR     68  64  88 CALM      29.99R
OSHKOSH        CLEAR     70  66  87 CALM      29.98S
$$

WIZ032>034-041-042-053>061-230900-
SOUTHWEST WISCONSIN

CITY           SKY/WX    TMP DP  RH WIND       PRES   REMARKS
LA CROSSE      PTCLDY    77  74  90 CALM      29.96S
SPARTA         MOCLDY    66  66 100 S3        30.00R
VIROQUA        MOCLDY    75  75 100 CALM      30.01S VSB 1/2
BOSCOBEL       FOG       77  76  96 CALM      29.98S VSB 1/4
PRAIRIE DU CHI MOCLDY    75  74  95 CALM      29.97S
PLATTEVILLE    MOCLDY    76  76 100 S3        30.00F
$$

WIZ056-057-062-063-064-067-068-230900-
SOUTH CENTRAL WISCONSIN

CITY           SKY/WX    TMP DP  RH WIND       PRES   REMARKS
REEDSBURG      PTCLDY    74  74 100 CALM      29.98S
BARABOO/DELLS  FOG       74  73  94 CALM      29.98F VSB 3/4
LONE ROCK      FOG       76  75  97 CALM      29.98F VSB 1/4
MINERAL POINT  FOG       75  75 100 CALM      30.01S VSB<1/4
MADISON        FOG       75  74  96 CALM      29.98S VSB 3/4
MIDDLETON      MOCLDY    74  74 100 CALM      30.00R VSB 1
WATERTOWN      FOG       73  73 100 CALM      29.99S VSB 3/4
MONROE         PTCLDY    75  73  94 SW3       30.00S
JANESVILLE     MOCLDY    77  77 100 CALM      29.98F
$$

WIZ051-052-058>065-066-070>072-230900-
SOUTHEAST WISCONSIN

CITY           SKY/WX    TMP DP  RH WIND       PRES   REMARKS
MILWAUKEE      PTCLDY    76  71  85 CALM      29.98S
WAUKESHA       FOG       72  72 100 CALM      30.00S VSB 3/4
MILWAUKEE/TIMM CLEAR     73  68  83 CALM      29.99S
RACINE         CLEAR     77  73  87 W3        29.99F
BURLINGTON     FOG       73  72  99 CALM      29.99S VSB 1/4
KENOSHA        CLEAR     75  74  96 CALM      29.99S
FOND DU LAC    CLEAR     71  70  96 CALM      29.98F FOG
SHEBOYGAN      CLEAR     70  68  93 CALM      29.97F
WEST BEND      CLEAR     70  68  94 CALM      29.99S
JUNEAU         FOG       71  71  99 CALM      30.00F VSB<1/4
$$

LSZ147-162-230900-
LAKE SUPERIOR

STATION/POSITION TIME  TEMP    WIND        PRES    WAVE
                       AIR SEA DIR/SP/G            HT/PER
                 (UTC) (F)     (DEG/KT/KT) (MB)    (FT/S)
W MID LAKE BUOY  0750   62 57  260/  6/  8 1014.1R   1
DEVILS ISLAND    0800   70     260/  6/  7 1015.0F
SAXON HARBOR     0700   67     200/  5/  6 1015.2
$$

LMZ867-665-643>646-230900-
LAKE MICHIGAN

STATION/POSITION TIME  TEMP    WIND        PRES    WAVE
                       AIR SEA DIR/SP/G            HT/PER
                 (UTC) (F)     (DEG/KT/KT) (MB)    (FT/S)
CHAMBERS ISLAND  0700   69     210/  4/  5 1014.2S
S GREEN BAY BUOY 0730   74 74  190/  2/  2   N/A
N MID LAKE BUOY  0750   70 68  270/  6/  6 1013.5R   1/ 5
NORTHPORT PIER   0700   75     270/  4/  7 1013.9S
KEWAUNEE LAKESHO 0700   72     300/  4/  5 1013.9F
SHEBOYGAN LAKESH 0800   73     240/  6/  6 1014.7F
PORT WASHINGTON  0700   71     280/  2/  3 1015.6
MILWAUKEE LAKESH 0710   71        CALM       N/A
S MID LAKE BUOY  0750   74 73  210/  4/  6 1014.7F   0
KENOSHA   LAKESH 0800   78     260/  3/  4 1014.9S
$$

TC  - TEMPERATURE IN CELSIUS
VSB - VISIBILITY IN STATUTE MILES
WCI - WIND CHILL INDEX
HX  - HEAT INDEX




USA.gov is the U.S. government's official web portal to all federal, state and local government web resources and services.